AFL1680 UUEE-UWKE

Flight info

Callsign AFL1680
Flight time N/A
Altitude 37000
Route KOGOM3J KOGOM L94 EKPIR M864 INKEB L94 NAMER T765 GEMKI GEMKI4M
Aircraft B738/M-SDE2E3FGHIRWXY/LB1

Departure

Time N/A
Airport Sheremetyevo International Airport (UUEE)

Arrival

Time 2026-04-29 16:01
Airport Begishevo Airport (UWKE)
Time Latitude Longitude Altitude Speed Heading
2026-04-29 15:58 55.63843 52.24337 2539 ft 131 kts 239°
2026-04-29 15:58 55.63447 52.22941 2379 ft 128 kts 239°
2026-04-29 15:58 55.62927 52.21660 2227 ft 129 kts 235°
2026-04-29 15:59 55.62371 52.20412 2062 ft 129 kts 231°
2026-04-29 15:59 55.61773 52.19235 1904 ft 129 kts 229°
2026-04-29 15:59 55.61161 52.18076 1751 ft 129 kts 228°
2026-04-29 15:59 55.60541 52.16909 1569 ft 132 kts 228°
2026-04-29 16:00 55.59908 52.15721 1391 ft 134 kts 228°
2026-04-29 16:00 55.59267 52.14521 1234 ft 135 kts 228°
2026-04-29 16:00 55.58618 52.13302 1046 ft 136 kts 229°
2026-04-29 16:00 55.57967 52.12102 883 ft 136 kts 228°
2026-04-29 16:01 55.57313 52.10872 701 ft 137 kts 228°
2026-04-29 16:01 55.56708 52.09714 654 ft 116 kts 229°
2026-04-29 16:01 55.56256 52.08856 654 ft 74 kts 227°
2026-04-29 16:01 55.56024 52.08416 650 ft 25 kts 227°
2026-04-29 16:02 55.55924 52.08229 652 ft 20 kts 226°
2026-04-29 16:02 55.55827 52.08050 652 ft 20 kts 226°
2026-04-29 16:02 55.55780 52.07961 653 ft 6 kts 226°
2026-04-29 16:02 55.55770 52.07942 654 ft 0 kts 226°
2026-04-29 16:03 55.55750 52.07911 653 ft 2 kts 210°
2026-04-29 16:03 55.55731 52.07910 654 ft 4 kts 178°
2026-04-29 16:04 55.55694 52.07884 654 ft 3 kts 232°
2026-04-29 16:04 55.55698 52.07831 653 ft 6 kts 301°
2026-04-29 16:04 55.55708 52.07817 652 ft 0 kts 340°
2026-04-29 16:04 55.55711 52.07824 652 ft 1 kts 42°
2026-04-29 16:05 55.55746 52.07892 654 ft 15 kts 47°
2026-04-29 16:05 55.55848 52.08085 654 ft 28 kts 46°
2026-04-29 16:05 55.55985 52.08346 652 ft 29 kts 47°
2026-04-29 16:05 55.56116 52.08596 653 ft 27 kts 46°
2026-04-29 16:06 55.56240 52.08826 657 ft 25 kts 46°
2026-04-29 16:06 55.56356 52.09046 652 ft 26 kts 47°
2026-04-29 16:06 55.56486 52.09291 650 ft 28 kts 46°
2026-04-29 16:06 55.56615 52.09531 653 ft 26 kts 46°
2026-04-29 16:07 55.56704 52.09761 652 ft 16 kts 96°
2026-04-29 16:07 55.56664 52.09853 653 ft 9 kts 135°
2026-04-29 16:07 55.56613 52.09923 652 ft 9 kts 139°
2026-04-29 16:07 55.56567 52.09997 654 ft 9 kts 137°
2026-04-29 16:08 55.56547 52.10028 653 ft 3 kts 138°
2026-04-29 16:08 55.56533 52.10050 651 ft 0 kts 135°